This is the latest recevied weather packets stored in our database for station/object N5PA. If no packets are shown the sender has not sent any weather packets the latest 10 day(s).
| Time | Temp. | Humidity | Pressure | Rain* | Wind** | Luminosity | Snow |
|---|---|---|---|---|---|---|---|
| 1778058904 | 21.11° C | 56% | 1012 hPa | 0 mm | - | 997 W/m² | - |
| 1778058606 | 21.11° C | 55% | 1011.9 hPa | 0 mm | - | 997 W/m² | - |
| 1778058306 | 21.11° C | 54% | 1011.8 hPa | 0 mm | - | 997 W/m² | - |
| 1778058006 | 21.11° C | 54% | 1011.8 hPa | 0 mm | - | 997 W/m² | - |
| 1778057705 | 21.11° C | 54% | 1011.7 hPa | 0 mm | - | 998 W/m² | - |
| 1778057406 | 21.11° C | 53% | 1011.6 hPa | 0 mm | - | 998 W/m² | - |
| 1778057106 | 21.11° C | 53% | 1011.4 hPa | 0 mm | - | 998 W/m² | - |
| 1778056805 | 21.11° C | 53% | 1011.5 hPa | 0 mm | - | 998 W/m² | - |
| 1778056505 | 21.11° C | 54% | 1011.6 hPa | 0 mm | - | 997 W/m² | - |
| 1778056205 | 21.11° C | 54% | 1011.6 hPa | 0 mm | - | 998 W/m² | - |
| 1778055905 | 21.11° C | 54% | 1011.6 hPa | 0 mm | - | 995 W/m² | - |
| 1778055605 | 21.11° C | 54% | 1011.6 hPa | 0 mm | - | 998 W/m² | - |
| 1778055306 | 21.11° C | 54% | 1011.5 hPa | 0 mm | - | 997 W/m² | - |
| 1778055006 | 21.11° C | 54% | 1011.6 hPa | 0 mm | - | 998 W/m² | - |
| 1778054705 | 21.11° C | 54% | 1011.8 hPa | 0 mm | - | 995 W/m² | - |
| 1778054405 | 21.11° C | 54% | 1011.8 hPa | 0 mm | - | 995 W/m² | - |
| 1778054106 | 21.11° C | 54% | 1011.8 hPa | 0 mm | - | 995 W/m² | - |
| 1778053806 | 21.11° C | 54% | 1011.6 hPa | 0 mm | - | 995 W/m² | - |
| 1778053506 | 21.11° C | 54% | 1011.5 hPa | 0 mm | - | 995 W/m² | - |
| 1778053205 | 21.11° C | 54% | 1011.5 hPa | 0 mm | - | 995 W/m² | - |
| 1778052904 | 21.11° C | 54% | 1011.7 hPa | 0 mm | - | 995 W/m² | - |
| 1778052606 | 21.11° C | 53% | 1011.7 hPa | 0 mm | - | 997 W/m² | - |
| 1778052306 | 21.11° C | 52% | 1011.8 hPa | 0 mm | - | 995 W/m² | - |
| 1778052004 | 21.11° C | 52% | 1011.9 hPa | 0 mm | - | 995 W/m² | - |
| 1778051705 | 21.11° C | 51% | 1011.9 hPa | 0 mm | - | 997 W/m² | - |
* Rain latest hour (hover to see other rain measurements)
** Current wind speed in m/s (hover to see current wind gust speed)